User: anonymous   Login
Location: Carabito
(9.8355°N, 67.9249°W)
Time: 20:35:34
(UTC+00:00)
Language:

Cosmos 2263 Rocket - Orbit

View from above orbital plane
View from above orbital plane
View from above satellite
View from above satellite

Ground track
Ground track

The orbit data is extracted from the following two-line orbital elements,

1 22803U 93059B   24199.43425914 -.00000001  00000-0  23528-4 0  9994
2 22803  70.9886 196.7933 0015669  38.7110 321.5134 14.17043569594490
Epoch (UTC): 17 July 2024 10:25:19
Eccentricity: 0.0015669
inclination: 70.9886°
perigee height: 824 km
apogee height: 846 km
right ascension of ascending node: 196.7933°
argument of perigee: 38.7110°
revolutions per day: 14.17043569
mean anomaly at epoch: 321.5134°
orbit number at epoch: 59449

The dashed part of the orbit path shows where the satellite is in the earth's shadow,  

DLR